Temperature
3 3 3 2 2 1 0 -1 -2 -3 -3 -2 -1 -0 -1 -0 -0 -0 -1 -1 -2 -2 -2 -2 -2 -2 -2 -2 -2 -1 -1 -1 -1 -1 -0 0 1 1
3 3 2 2 1 1 -0 -1 -2 -3 -4 -3 -3 -2 -2 -2 -2 -2 -2 -2 -3 -3 -3 -3 -3 -3 -3 -2 -2 -2 -2 -2 -1 -1 -1 -0 0 0
2 2 2 1 1 0 -1 -1 -2 -3 -4 -4 -4 -4 -4 -3 -3 -3 -3 -3 -3 -3 -3 -4 -4 -3 -3 -3 -3 -3 -2 -2 -2 -2 -1 -1 -0 -0
2 1 1 0 0 -0 -1 -2 -2 -3 -4 -4 -4 -4 -5 -5 -5 -4 -4 -4 -4 -4 -4 -4 -4 -4 -3 -3 -3 -3 -3 -3 -2 -2 -2 -2 -1 -1
1 1 0 -0 -1 -1 -2 -2 -3 -3 -4 -5 -5 -5 -5 -5 -5 -5 -5 -5 -4 -4 -4 -4 -4 -4 -4 -4 -3 -3 -3 -3 -3 -3 -2 -2 -2 -1
1 0 -0 -1 -1 -2 -2 -3 -4 -4 -5 -5 -6 -6 -6 -5 -6 -6 -6 -5 -5 -5 -4 -4 -4 -4 -4 -4 -4 -4 -3 -3 -3 -3 -3 -3 -2 -2
0 -0 -1 -1 -2 -3 -4 -4 -5 -5 -5 -6 -6 -6 -6 -6 -6 -6 -6 -6 -6 -5 -5 -4 -4 -4 -4 -4 -4 -4 -4 -4 -3 -3 -3 -3 -3 -3
-1 -1 -1 -2 -2 -3 -4 -4 -5 -5 -6 -6 -6 -6 -6 -6 -6 -6 -6 -6 -6 -5 -5 -5 -5 -5 -4 -4 -4 -4 -4 -4 -4 -4 -4 -3 -3 -3
-1 -2 -2 -2 -3 -3 -4 -4 -5 -5 -6 -6 -6 -6 -6 -6 -6 -6 -6 -6 -6 -6 -6 -6 -5 -5 -5 -4 -4 -4 -4 -4 -4 -4 -4 -4 -3 -3
-2 -2 -3 -3 -3 -4 -4 -5 -5 -5 -6 -6 -6 -6 -6 -6 -6 -6 -6 -6 -6 -6 -6 -6 -6 -5 -5 -5 -5 -4 -4 -4 -4 -4 -4 -4 -4 -3
-2 -3 -3 -4 -4 -5 -6 -6 -6 -6 -6 -6 -6 -6 -6 -6 -6 -6 -6 -7 -7 -6 -6 -7 -6 -6 -5 -5 -5 -5 -5 -5 -4 -4 -4 -4 -4 -4
-3 -3 -4 -4 -5 -5 -6 -6 -6 -6 -6 -6 -6 -6 -6 -6 -6 -7 -7 -7 -7 -7 -7 -7 -7 -7 -6 -6 -5 -5 -5 -5 -5 -5 -5 -4 -4 -4
-4 -4 -4 -5 -6 -6 -6 -6 -6 -6 -6 -6 -7 -6 -6 -7 -7 -7 -7 -7 -8 -8 -7 -7 -7 -7 -7 -7 -6 -6 -5 -5 -5 -5 -5 -5 -5 -5
-5 -5 -5 -6 -6 -6 -6 -6 -7 -7 -7 -7 -7 -7 -7 -7 -7 -7 -7 -7 -8 -8 -7 -7 -7 -7 -7 -7 -7 -6 -6 -6 -6 -5 -5 -5 -5 -5
-5 -6 -6 -6 -6 -6 -6 -7 -7 -7 -7 -8 -8 -8 -8 -8 -8 -8 -7 -7 -7 -7 -7 -7 -7 -7 -7 -7 -7 -7 -6 -6 -6 -6 -6 -6 -6 -5
-6 -6 -6 -6 -6 -7 -7 -7 -7 -7 -8 -8 -9 -8 -8 -8 -8 -8 -8 -8 -8 -7 -7 -7 -7 -7 -7 -7 -7 -7 -7 -7 -6 -6 -6 -6 -6 -6
-6 -6 -7 -7 -7 -7 -7 -7 -8 -8 -8 -9 -9 -9 -9 -9 -9 -8 -8 -8 -8 -8 -7 -7 -7 -7 -7 -7 -7 -7 -7 -7 -7 -7 -6 -6 -6 -6
-7 -7 -7 -7 -8 -8 -8 -8 -8 -8 -9 -9 -9 -9 -9 -9 -9 -9 -9 -9 -9 -8 -8 -8 -8 -8 -7 -7 -7 -7 -7 -7 -7 -7 -7 -7 -6 -6
-7 -8 -8 -8 -8 -9 -9 -9 -9 -9 -9 -9 -9 -9 -10 -10 -9 -9 -9 -9 -9 -9 -8 -8 -8 -8 -8 -8 -7 -7 -7 -7 -7 -7 -7 -7 -7 -6
-8 -8 -9 -9 -9 -9 -9 -9 -10 -10 -10 -10 -10 -10 -10 -10 -10 -9 -9 -9 -9 -9 -9 -8 -8 -9 -9 -8 -8 -8 -8 -8 -7 -7 -7 -7 -7 -7
-8 -9 -9 -9 -9 -9 -10 -10 -10 -10 -10 -10 -10 -10 -10 -10 -10 -10 -9 -9 -9 -9 -9 -9 -9 -9 -9 -9 -8 -8 -8 -8 -8 -8 -8 -7 -7 -7
-9 -9 -9 -10 -10 -10 -10 -10 -10 -10 -10 -10 -10 -10 -10 -10 -10 -10 -10 -10 -9 -9 -9 -9 -9 -9 -9 -9 -9 -8 -8 -8 -8 -8 -8 -8 -8 -7
-9 -10 -10 -10 -10 -10 -10 -10 -11 -11 -11 -11 -10 -10 -10 -10 -10 -10 -10 -10 -10 -9 -9 -9 -9 -9 -9 -9 -9 -9 -9 -8 -8 -8 -8 -8 -8 -8
Wind_Speed
5 5 4 5 5 5 5 5 4 7 7 5 4 4 10 16 20 20 19 24 27 27 28 28 28 28 28 28 28 28 28 28 28 28 29 29 30 29
4 5 6 5 5 5 5 6 6 7 9 4 5 7 11 16 22 21 21 27 27 27 27 27 27 27 27 27 28 28 28 28 28 28 29 29 30 30
5 6 7 7 6 6 5 6 7 7 12 10 6 7 9 11 15 18 20 19 20 25 27 27 27 27 26 27 27 27 27 28 28 28 28 29 29 29
7 7 8 7 7 6 6 7 8 8 9 15 10 7 9 10 11 12 14 17 17 24 27 27 27 26 26 26 26 26 26 26 26 26 26 26 27 27
7 8 8 8 8 7 8 8 8 9 9 12 13 8 7 8 10 11 12 11 16 20 23 24 25 25 26 26 26 26 25 25 25 24 24 24 25 25
8 8 9 8 9 9 8 9 9 9 10 11 12 10 8 8 8 9 10 8 10 13 18 21 24 25 26 26 25 25 24 24 24 24 23 23 23 23
8 8 9 11 14 12 10 8 8 8 9 11 12 11 9 7 8 8 12 11 10 10 10 10 11 10 13 21 23 24 24 24 23 23 23 23 23 23
8 8 9 11 14 19 21 20 17 13 11 11 12 13 12 10 9 11 12 13 11 5 6 9 7 10 10 10 20 24 24 24 23 22 22 22 22 21
8 8 8 9 15 9 16 20 19 23 22 16 15 14 14 12 13 15 13 14 14 7 8 12 8 11 10 14 22 23 23 23 22 21 21 21 21 20
8 9 10 10 11 12 11 11 12 13 16 13 12 14 14 13 13 14 15 14 12 9 8 11 9 9 10 9 19 22 21 21 20 20 19 19 18 18
9 9 10 10 17 22 15 13 13 11 17 22 23 22 25 25 20 11 10 11 12 8 5 6 7 8 8 8 11 16 16 16 16 16 16 15 15 15
8 9 15 16 20 22 14 12 14 12 11 12 14 16 14 16 20 11 8 11 11 8 4 4 5 5 5 4 4 4 6 11 14 14 13 13 13 7
8 7 8 19 22 23 21 12 16 17 10 9 8 8 8 8 8 8 7 8 10 9 5 4 6 5 6 5 4 4 4 5 5 7 10 11 11 7
9 7 10 21 23 23 18 18 24 20 7 7 8 8 8 7 7 8 8 9 10 12 10 8 6 7 7 8 6 3 3 4 4 5 4 7 8 8
10 17 21 24 22 15 17 22 19 8 7 8 9 9 7 7 7 7 7 8 9 10 10 9 8 7 7 8 6 4 4 4 3 3 3 3 3 2
12 16 21 21 17 16 15 12 7 7 9 9 9 8 7 6 6 6 6 6 6 7 6 7 7 8 7 7 7 6 5 4 2 2 3 3 2 2
12 8 7 7 7 6 7 7 6 7 8 7 8 9 8 8 7 5 5 5 6 6 6 5 5 6 7 6 6 6 6 5 4 3 2 3 2 2
16 8 8 8 9 8 8 8 7 7 8 8 8 9 8 8 8 6 6 6 6 6 6 5 4 4 3 4 7 7 5 4 3 3 2 2 3 2
11 8 8 9 9 9 8 8 8 8 7 8 9 8 8 8 8 7 6 6 6 6 6 4 4 3 4 5 4 5 4 2 2 2 2 2 2 2
7 9 9 9 9 9 8 8 8 8 8 8 8 8 8 8 7 7 6 6 6 6 6 4 4 4 5 4 3 3 4 3 2 2 2 1 2 3
9 9 9 9 9 9 9 8 9 9 9 8 8 8 8 7 8 7 7 10 8 5 6 6 6 8 4 2 3 3 3 4 4 3 2 1 1 1
10 10 9 9 9 9 9 8 9 9 9 9 9 8 7 7 8 8 7 7 6 6 7 6 5 3 2 3 4 4 3 3 4 5 5 5 3 3
10 10 10 9 9 8 8 9 10 10 9 9 9 8 7 7 7 7 7 7 6 6 6 5 3 2 3 4 4 4 4 3 2 2 2 5 7 7
Wind_Direction
254 256 253 253 246 242 238 232 252 291 295 263 269 276 296 300 299 299 293 296 298 297 296 293 291 289 287 285 284 282 282 281 279 277 275 273 272 270
252 256 258 258 256 249 243 242 234 255 280 264 263 276 289 295 299 299 295 298 300 299 296 294 291 289 288 286 284 282 281 279 278 276 275 272 271 269
265 259 262 261 259 256 249 246 247 247 274 284 264 270 272 278 288 289 290 289 291 295 296 295 293 290 288 286 285 283 282 280 279 277 276 274 272 270
266 265 267 269 261 258 254 253 255 250 264 285 287 276 268 271 276 279 287 290 288 293 295 294 293 291 290 289 287 285 283 281 280 279 277 276 275 273
260 261 265 266 267 264 259 260 261 265 260 275 286 282 275 274 277 277 277 279 284 289 292 293 291 291 290 290 289 287 285 284 282 281 279 277 276 275
257 256 258 258 261 265 267 261 262 265 267 275 284 286 279 271 270 278 285 275 278 283 284 285 286 288 290 291 290 290 290 289 287 283 280 277 275 273
262 258 258 268 274 278 278 269 264 268 273 279 285 288 285 280 276 277 287 288 278 270 272 274 277 276 279 283 286 286 285 284 281 279 278 276 273 271
267 268 268 276 283 290 293 294 291 286 286 284 287 287 289 284 283 284 287 290 290 250 257 274 268 273 271 266 276 279 280 280 279 278 276 275 273 270
264 269 278 278 292 282 286 290 288 287 286 286 285 285 286 285 285 285 282 281 284 279 280 284 272 273 272 273 279 282 282 282 281 279 278 276 272 269
261 262 268 272 275 284 273 271 266 269 275 279 271 273 275 277 274 279 284 285 280 271 261 278 278 275 278 272 280 282 284 284 283 283 281 277 274 272
264 263 269 268 282 293 292 284 282 276 282 284 284 286 289 294 296 294 291 292 292 284 251 258 275 279 278 275 276 283 290 292 292 290 288 284 278 274
268 264 278 284 291 295 292 286 288 287 282 283 285 288 288 289 292 287 282 284 288 288 253 246 272 288 287 266 269 282 293 296 299 298 296 295 289 282
275 271 268 289 294 295 296 290 291 297 293 290 289 283 280 276 275 270 261 265 277 277 271 270 276 274 273 283 278 267 265 273 289 294 300 300 294 282
280 275 276 290 293 297 299 297 299 305 301 297 292 288 283 280 277 274 269 263 262 270 274 270 270 273 278 279 280 273 268 266 270 278 283 298 300 295
280 285 290 295 299 299 296 298 302 300 293 290 287 285 278 273 278 283 281 275 273 269 268 262 263 269 270 274 278 274 285 279 265 271 285 286 288 295
284 285 290 293 292 289 293 296 288 277 281 280 283 283 280 277 278 278 285 291 292 289 274 261 259 261 267 266 269 277 271 272 285 283 287 284 281 275
284 278 276 280 275 273 275 274 271 276 283 276 281 287 286 284 284 281 277 282 282 290 299 296 277 264 256 259 267 268 267 266 263 269 274 285 284 276
295 286 285 282 280 281 283 283 279 278 276 277 279 281 282 283 285 283 276 275 280 284 288 292 300 305 297 270 241 257 263 264 268 261 248 269 291 293
291 282 281 281 280 278 276 276 279 277 276 275 277 276 275 276 279 280 277 276 278 279 281 281 279 274 282 287 280 238 237 260 266 271 252 240 262 283
271 273 276 277 276 275 274 274 275 276 275 274 273 271 269 271 274 274 271 269 276 280 283 280 268 258 254 265 275 279 255 240 241 255 259 257 271 290
275 271 271 273 273 271 270 270 272 274 274 273 272 267 264 264 268 267 266 272 276 274 276 276 269 283 276 259 265 273 283 269 245 233 215 215 261 295
274 272 272 270 270 268 267 268 270 272 272 270 269 266 261 259 263 262 260 261 261 261 266 274 279 284 236 238 256 267 281 298 286 264 243 220 189 194
273 272 271 270 268 266 266 265 267 271 270 269 268 264 259 260 259 258 257 256 259 261 263 273 275 252 239 238 250 259 264 273 278 270 270 256 241 234
Height
1506 1504 1501 1499 1496 1494 1491 1487 1483 1473 1465 1464 1463 1462 1461 1457 1453 1449 1445 1442 1439 1436 1434 1432 1430 1428 1426 1425 1424 1423 1422 1422 1421 1421 1421 1422 1422 1423
1500 1498 1496 1493 1490 1488 1485 1482 1478 1472 1463 1457 1457 1455 1453 1449 1446 1442 1438 1435 1431 1428 1425 1423 1421 1419 1417 1416 1415 1414 1413 1412 1412 1411 1411 1412 1412 1413
1495 1492 1489 1487 1484 1481 1478 1475 1472 1467 1458 1450 1450 1447 1445 1442 1438 1435 1431 1427 1423 1420 1417 1415 1413 1411 1409 1407 1406 1405 1404 1403 1402 1402 1402 1402 1402 1403
1488 1486 1483 1480 1477 1474 1471 1467 1464 1460 1454 1445 1441 1440 1437 1434 1431 1427 1424 1420 1416 1413 1410 1407 1405 1403 1401 1399 1398 1396 1395 1394 1393 1392 1392 1392 1393 1393
1482 1479 1476 1473 1470 1467 1463 1459 1456 1452 1447 1441 1434 1432 1429 1427 1423 1419 1416 1413 1409 1406 1402 1400 1397 1395 1393 1391 1389 1388 1386 1385 1384 1383 1383 1383 1383 1384
1475 1472 1469 1466 1462 1459 1455 1452 1448 1444 1440 1435 1429 1425 1422 1419 1416 1412 1407 1404 1401 1398 1395 1392 1390 1388 1386 1383 1381 1379 1378 1376 1375 1374 1374 1374 1374 1375
1468 1465 1462 1459 1455 1452 1448 1444 1441 1437 1433 1428 1423 1418 1415 1412 1409 1405 1400 1395 1392 1390 1386 1384 1382 1379 1377 1375 1372 1370 1369 1367 1366 1366 1366 1366 1366 1366
1460 1457 1455 1452 1448 1445 1441 1438 1435 1431 1426 1422 1417 1413 1408 1406 1403 1399 1394 1389 1383 1382 1379 1375 1374 1370 1368 1366 1364 1362 1360 1359 1359 1358 1358 1357 1358 1358
1452 1449 1446 1443 1440 1436 1432 1429 1426 1423 1420 1417 1410 1406 1402 1399 1396 1391 1387 1383 1378 1375 1373 1366 1365 1362 1360 1358 1356 1354 1353 1352 1351 1351 1350 1350 1350 1350
1445 1442 1438 1435 1432 1428 1423 1419 1416 1414 1411 1408 1403 1399 1395 1392 1388 1384 1380 1374 1370 1368 1366 1360 1357 1354 1352 1350 1349 1347 1346 1345 1344 1343 1343 1342 1342 1343
1437 1434 1431 1427 1423 1420 1416 1411 1407 1404 1402 1399 1396 1392 1388 1385 1382 1377 1372 1368 1362 1359 1358 1355 1350 1348 1345 1343 1342 1341 1340 1339 1338 1337 1336 1336 1336 1336
1428 1426 1423 1419 1416 1413 1409 1405 1399 1395 1392 1388 1385 1382 1379 1376 1373 1370 1365 1361 1356 1352 1350 1349 1345 1343 1338 1336 1336 1335 1334 1333 1332 1331 1331 1330 1330 1330
1419 1416 1414 1411 1408 1405 1402 1398 1393 1389 1385 1380 1376 1373 1370 1366 1363 1361 1358 1355 1351 1347 1345 1343 1340 1338 1336 1332 1330 1330 1329 1328 1327 1326 1325 1325 1325 1325
1412 1408 1405 1403 1400 1397 1394 1390 1386 1383 1377 1373 1368 1365 1361 1358 1355 1353 1351 1348 1345 1342 1339 1338 1335 1333 1331 1328 1326 1324 1324 1323 1322 1321 1320 1320 1320 1320
1404 1401 1398 1395 1392 1388 1385 1382 1378 1374 1369 1365 1361 1357 1354 1351 1349 1346 1344 1341 1338 1336 1334 1332 1330 1328 1326 1324 1322 1321 1320 1319 1318 1317 1317 1316 1316 1316
1397 1393 1389 1386 1383 1379 1376 1373 1370 1366 1362 1358 1354 1351 1348 1345 1342 1340 1337 1335 1332 1330 1329 1327 1325 1323 1321 1320 1318 1316 1316 1315 1314 1314 1313 1313 1313 1313
1388 1384 1380 1377 1373 1370 1367 1364 1361 1358 1355 1352 1348 1344 1342 1339 1337 1335 1332 1330 1327 1324 1322 1322 1320 1318 1317 1316 1314 1313 1312 1311 1311 1311 1310 1310 1310 1310
1381 1376 1372 1369 1365 1362 1359 1356 1353 1350 1347 1344 1342 1339 1336 1334 1331 1329 1327 1325 1323 1320 1319 1317 1315 1314 1313 1311 1311 1309 1309 1308 1308 1308 1307 1307 1307 1308
1372 1368 1364 1361 1357 1354 1351 1348 1345 1343 1340 1338 1335 1333 1330 1328 1326 1324 1322 1320 1318 1316 1315 1313 1312 1310 1309 1307 1306 1306 1306 1305 1305 1305 1305 1305 1305 1306
1363 1359 1356 1352 1349 1346 1343 1341 1338 1335 1333 1330 1328 1326 1324 1322 1320 1318 1317 1315 1313 1312 1310 1309 1308 1307 1305 1305 1303 1303 1303 1303 1303 1302 1303 1303 1303 1304
1353 1350 1347 1344 1341 1338 1336 1333 1330 1328 1325 1323 1321 1319 1318 1316 1314 1313 1311 1310 1309 1307 1305 1304 1304 1303 1302 1301 1300 1299 1300 1300 1300 1300 1300 1301 1301 1302
1344 1341 1338 1336 1333 1330 1328 1325 1323 1320 1318 1316 1314 1312 1311 1310 1308 1307 1306 1304 1303 1302 1301 1300 1299 1299 1298 1297 1296 1296 1296 1297 1297 1297 1298 1299 1299 1300
1336 1332 1329 1327 1324 1322 1319 1317 1315 1312 1310 1308 1307 1305 1304 1303 1302 1301 1300 1299 1298 1297 1296 1295 1295 1294 1294 1293 1293 1293 1293 1293 1293 1294 1295 1296 1297 1298